Theta_e
341 342 342 341 348 343 352 353 353 354 350 350 352 353 353 353 355 354 345 345 344 341 342 343 343 344 343 342 342 342 342 339 337 332 332 333 333 333 332 331 330 329 329 327 326 325 325 326 327
347 344 342 340 348 347 348 349 352 350 352 351 352 352 352 354 348 346 345 345 343 339 341 342 343 343 343 343 342 339 336 334 334 332 330 329 329 328 326 325 325 325 326 325 322 321 319 318 318
346 344 342 342 345 346 350 348 346 346 351 352 350 348 350 350 346 345 345 344 341 339 340 341 342 344 344 343 339 335 330 329 328 329 329 327 323 321 321 320 320 321 323 325 327 325 321 320 320
341 339 340 344 346 345 347 347 347 347 349 347 347 351 346 345 345 345 345 344 340 340 340 342 344 344 342 341 335 333 332 331 329 330 329 326 323 320 320 319 317 319 320 322 324 324 321 319 320
343 343 347 351 351 345 344 345 346 346 347 348 349 350 349 346 345 345 345 343 340 340 340 343 342 342 340 338 336 334 332 331 329 329 329 326 322 321 318 317 320 320 320 320 322 319 317 318 322
350 350 356 352 351 348 344 343 344 345 352 349 348 349 348 345 346 346 344 342 339 338 340 341 341 340 338 336 334 331 327 323 322 322 322 320 318 319 317 321 321 318 318 319 323 321 320 317 316
351 350 353 352 350 344 346 342 343 350 347 345 346 349 347 346 346 345 345 343 341 340 340 337 336 337 337 335 325 321 319 319 319 319 319 320 320 322 322 322 321 321 320 317 319 320 321 321 318
344 346 349 343 342 343 338 341 338 345 347 345 347 350 346 345 346 345 345 345 343 343 342 337 333 332 333 329 321 319 319 319 318 317 319 323 323 324 323 324 323 322 322 321 322 321 321 321 322
338 344 346 344 342 341 335 340 339 336 348 347 348 346 343 345 346 346 345 345 344 343 343 336 332 329 328 324 321 320 319 320 319 321 322 323 324 325 325 324 325 324 323 323 323 322 322 322 323
341 341 341 340 339 339 336 335 339 336 343 343 348 346 345 345 345 345 345 343 342 342 342 337 331 327 325 323 321 322 321 324 324 323 324 324 325 326 326 325 326 326 325 324 324 323 324 324 323
338 340 338 339 340 338 340 339 336 336 339 341 345 348 345 345 344 345 343 343 342 342 341 339 331 326 323 320 320 322 322 326 327 326 326 327 327 326 327 327 326 325 325 326 324 325 324 323 322
341 341 339 341 340 339 339 335 338 336 338 339 344 345 344 344 343 343 343 342 342 340 340 340 334 326 322 319 320 322 322 326 328 328 327 327 328 328 328 328 327 326 326 326 326 326 324 324 323
342 340 340 340 339 338 336 336 339 342 342 345 345 345 344 342 341 342 342 342 341 341 339 339 337 331 322 319 322 323 323 325 328 329 329 328 328 328 328 328 327 328 328 327 327 326 324 323 322
335 339 338 336 335 335 335 339 339 339 344 348 346 343 341 340 338 338 339 336 336 339 340 338 338 335 325 321 322 326 326 325 328 329 330 330 328 328 328 328 327 327 327 326 326 325 325 324 324
334 338 336 335 335 335 334 338 340 336 342 345 343 341 340 339 337 334 334 333 334 337 340 337 336 335 331 326 328 328 329 327 328 330 330 330 330 329 328 328 327 327 326 325 323 325 325 324 322
331 334 336 333 334 333 333 338 342 337 340 343 342 341 341 338 335 337 341 340 337 337 337 335 334 336 334 330 331 329 329 329 330 331 330 330 329 329 327 327 328 327 326 325 325 325 323 320 318
329 333 333 332 331 335 336 340 341 340 340 340 341 340 339 337 336 338 342 339 337 335 334 334 334 335 334 332 331 329 329 330 332 331 330 329 329 329 328 327 328 327 326 325 324 323 319 317 313
332 333 332 332 331 336 338 340 340 343 344 342 339 339 337 334 334 338 342 339 338 334 333 332 335 333 332 330 330 330 331 331 331 330 328 327 328 327 327 327 328 326 325 322 321 319 317 315 314
331 332 332 331 330 335 336 337 336 336 332 332 336 337 334 330 333 339 341 338 335 334 333 333 332 332 331 330 330 330 330 330 328 326 324 324 326 325 327 326 326 324 321 320 318 318 315 315 316
332 332 332 330 331 335 337 338 337 337 335 333 333 333 334 330 339 340 339 337 335 335 334 335 331 332 331 330 331 331 331 330 327 326 324 323 322 321 323 326 324 320 320 319 317 317 316 316 316
331 332 332 331 329 335 337 337 338 336 337 335 335 333 332 330 342 340 337 336 337 336 335 333 329 332 333 332 332 331 330 328 326 322 322 323 323 323 323 321 320 320 319 318 317 317 317 316 316
331 329 330 329 329 330 332 333 333 335 336 334 335 337 333 331 340 338 336 337 336 334 334 333 333 334 334 333 332 332 326 324 323 322 324 323 322 322 321 321 320 319 319 319 318 318 317 316 317
328 330 331 330 328 330 331 330 331 334 335 339 342 342 335 332 336 334 335 335 335 335 334 334 332 331 329 327 328 327 322 322 322 324 323 321 320 319 318 317 316 316 315 316 314 316 317 316 316
329 330 325 323 324 330 330 331 328 335 334 334 338 338 337 336 336 335 333 332 332 333 332 329 326 327 327 325 323 323 324 324 324 323 319 317 316 315 313 310 309 309 310 311 311 311 310 310 312
326 324 328 330 331 331 332 334 332 333 335 331 336 337 337 336 333 333 331 330 331 329 329 330 331 328 323 322 322 325 321 323 322 316 315 313 310 309 307 307 306 306 308 310 311 311 312 312 312
328 325 328 334 337 335 334 339 337 335 333 333 334 334 334 336 333 331 330 330 331 332 332 331 328 327 326 326 319 321 322 318 315 312 309 308 307 309 308 306 307 307 307 307 307 307 309 308 310
331 332 328 335 337 338 335 336 332 334 333 335 335 334 335 336 332 330 328 329 332 330 329 326 321 319 319 320 321 318 314 311 309 308 307 308 308 309 308 308 308 307 307 307 307 307 308 309 309
330 331 335 334 340 342 338 341 338 336 336 333 335 333 331 329 327 324 324 326 330 328 325 321 319 320 319 317 314 312 311 309 308 309 309 309 310 309 309 307 305 306 306 306 306 306 308 308 308
334 333 333 331 331 336 337 338 331 332 334 333 331 331 330 327 325 324 324 324 325 324 320 321 319 317 314 313 312 311 309 309 309 309 310 310 308 307 306 306 306 306 306 306 307 307 307 307 309
333 334 332 335 334 335 334 335 333 331 329 332 333 331 329 327 325 322 323 323 322 320 320 318 314 313 313 312 311 310 310 310 310 310 310 308 305 305 306 307 308 308 307 307 307 307 307 307 309
Wind_Speed
4 5 3 2 3 4 0 2 1 3 2 3 3 1 4 3 2 3 2 17 25 26 22 19 16 14 13 12 11 11 11 10 9 8 8 7 6 5 4 3 2 1 1 0 1 2 3 3 4
5 2 3 2 4 2 3 2 5 4 4 9 7 4 2 1 3 5 12 15 27 26 23 20 17 15 14 13 12 11 9 9 9 8 8 7 6 5 3 2 1 1 2 3 3 4 5 4 4
5 3 3 3 3 4 4 6 5 3 11 3 4 3 4 3 2 16 5 24 28 26 23 21 17 16 17 15 13 12 11 10 9 8 8 7 6 4 3 1 2 2 3 4 5 6 6 7 7
6 6 3 4 2 4 3 4 3 2 5 3 4 3 2 4 11 13 16 26 25 24 22 19 19 18 15 13 12 11 10 9 8 7 6 5 4 3 2 0 2 4 4 5 6 6 6 6 7
6 3 3 3 3 4 4 4 3 5 5 5 3 4 1 5 8 17 23 24 24 24 21 19 17 15 14 13 11 10 9 8 7 7 6 4 4 3 2 3 3 4 5 5 6 6 6 7 7
4 2 3 2 3 4 5 7 3 4 3 5 4 6 3 6 13 21 27 25 24 24 22 19 17 16 15 14 13 12 11 9 8 7 6 5 4 2 3 2 4 5 5 6 5 6 7 8 8
4 2 3 4 4 4 5 4 5 5 6 4 10 5 1 6 20 26 28 25 22 23 22 20 19 17 16 15 14 12 10 9 7 7 7 6 5 3 2 1 3 6 7 6 7 7 7 8 8
4 2 3 3 3 5 4 7 9 7 5 8 5 5 5 9 25 30 27 24 23 23 23 23 21 19 17 15 14 12 9 8 7 7 8 6 5 3 1 3 4 6 7 8 8 8 8 8 8
3 2 4 4 3 4 1 4 2 2 7 4 6 5 4 27 29 26 23 23 23 23 24 23 21 20 19 17 15 13 12 10 8 7 7 7 6 5 6 5 6 7 8 8 8 8 8 9 9
4 2 6 6 1 2 5 3 4 4 4 3 2 4 18 29 26 22 20 18 21 27 28 26 26 24 21 20 18 17 15 12 11 10 9 9 9 8 8 9 8 9 9 9 10 11 11 10 10
6 6 5 7 7 6 6 10 6 5 4 7 11 8 16 23 25 18 9 11 20 26 29 28 28 25 24 24 22 20 19 17 15 14 11 11 11 10 9 11 11 8 11 14 13 14 15 13 11
1 7 4 7 5 3 4 2 7 6 3 5 6 13 16 13 12 18 21 22 19 21 31 32 31 29 28 27 24 23 24 21 18 16 14 15 15 15 14 16 14 13 12 13 13 14 15 15 14
5 4 6 7 10 8 3 7 4 1 4 10 16 14 14 13 14 17 22 23 24 26 33 37 34 33 32 31 27 27 26 25 20 19 18 19 18 18 17 13 11 10 8 11 13 13 12 8 8
6 6 9 4 8 5 3 4 4 4 4 14 16 15 11 10 14 15 18 14 9 17 31 38 38 33 33 32 32 28 26 26 21 21 21 22 23 21 19 17 14 12 13 12 10 7 8 10 11
2 1 4 5 2 4 2 4 5 6 5 10 11 12 12 9 9 11 14 15 21 16 26 32 36 32 30 34 31 30 26 25 23 21 22 24 27 26 26 21 17 14 14 11 12 11 10 11 13
5 5 5 6 3 4 0 1 4 2 4 7 10 10 6 2 6 9 2 7 9 10 18 23 30 35 33 32 28 30 23 23 16 11 16 15 15 18 27 22 19 14 16 15 15 15 14 13 13
6 3 4 7 3 2 6 0 1 4 3 6 6 4 5 5 11 11 7 7 12 16 20 22 24 30 31 26 23 20 18 15 11 9 8 9 10 16 17 25 19 19 18 18 15 12 11 13 14
5 3 4 6 5 5 3 2 2 6 5 6 5 4 5 4 9 12 8 8 13 19 21 25 24 25 26 23 18 15 12 8 10 9 12 13 13 14 19 24 26 20 20 17 14 13 13 11 12
3 3 6 7 4 5 4 2 6 3 2 4 7 2 4 5 2 1 3 10 19 24 23 25 19 24 25 25 19 10 13 11 9 13 10 15 14 18 21 26 19 22 20 19 15 14 14 14 10
4 6 9 7 5 5 1 3 6 6 4 4 5 5 6 7 6 3 10 15 19 23 23 24 15 17 17 22 16 14 14 13 16 17 14 20 19 25 24 22 21 18 20 20 19 17 16 16 9
2 3 5 8 3 5 5 5 4 4 3 7 5 5 5 7 4 1 5 14 16 23 24 29 14 10 16 18 14 15 16 17 13 10 14 17 16 11 10 12 14 16 19 22 20 16 15 13 8
3 7 7 6 2 4 4 4 4 3 5 5 6 4 7 6 3 4 5 11 14 17 20 19 14 8 12 16 19 17 8 8 4 10 14 12 9 9 9 11 9 9 12 17 20 18 13 12 11
10 2 3 2 3 3 1 3 5 2 3 0 4 6 5 3 5 6 7 10 10 11 12 10 11 10 9 9 10 9 8 6 9 11 10 8 8 8 7 9 10 11 10 10 11 11 13 15 13
6 1 4 3 4 1 4 5 5 5 5 2 1 6 7 4 6 6 9 15 14 13 13 13 12 7 6 7 6 5 4 8 10 9 6 6 8 9 10 13 15 17 19 18 17 17 17 17 20
5 6 3 3 2 6 1 1 8 4 4 6 8 7 5 6 8 7 8 13 15 15 12 9 7 4 6 8 4 4 6 4 2 1 4 6 11 15 17 19 22 22 20 20 19 20 19 18 18
3 7 5 7 4 5 1 5 6 3 4 6 10 8 6 9 7 6 10 15 12 10 10 10 10 9 7 6 3 3 4 3 2 5 10 12 14 19 20 22 24 25 23 20 19 20 19 14 16
2 3 1 6 4 2 4 5 7 7 8 6 7 8 8 8 7 8 11 14 15 14 13 13 10 9 8 9 10 9 6 1 6 7 8 12 15 20 23 24 28 28 26 23 22 21 20 18 17
4 4 3 3 3 4 3 4 6 5 9 8 8 8 6 5 5 6 8 12 14 15 13 9 7 11 15 14 9 4 1 4 6 10 13 17 19 22 25 27 28 28 28 26 23 21 18 17 17
2 2 5 4 3 4 2 6 6 9 9 11 9 9 10 8 8 7 10 12 13 11 8 9 15 17 15 9 4 3 3 5 10 15 15 15 20 22 23 25 28 29 26 22 19 18 17 18 14
3 4 4 4 3 2 3 7 3 7 6 9 10 11 8 8 8 6 10 12 14 14 14 19 16 14 10 6 3 3 5 10 14 15 12 16 19 18 20 24 27 27 23 19 18 16 13 14 17
Wind_Direction
104 83 83 37 55 55 33 244 234 298 32 357 24 135 154 46 184 213 169 162 170 166 166 164 165 165 162 159 150 139 139 142 142 137 133 133 132 132 131 129 123 129 111 237 268 269 265 262 263
86 81 63 65 78 67 269 220 223 224 114 125 101 91 55 179 132 119 132 180 170 167 168 165 166 166 160 161 164 159 160 155 151 149 149 151 152 154 152 158 160 334 355 328 315 307 299 295 288
98 112 84 84 103 189 196 210 214 186 170 146 107 53 159 196 65 161 207 170 169 169 169 165 164 166 171 175 174 173 171 166 160 158 159 157 167 172 176 223 269 289 303 306 317 314 303 307 305
156 22 51 81 303 264 266 292 147 100 224 73 107 84 62 194 156 175 169 170 170 168 169 162 170 177 178 176 174 175 174 172 168 167 165 165 171 176 168 176 340 326 307 304 311 309 314 312 310
65 64 48 10 302 257 240 257 253 177 184 147 155 185 195 117 144 167 168 170 172 170 170 170 179 178 174 177 176 180 180 177 173 169 168 172 177 183 160 91 29 346 322 321 319 323 326 328 332
36 12 24 315 236 244 245 232 242 188 120 133 105 131 190 180 157 168 171 174 177 174 177 179 181 180 182 182 183 184 184 181 177 176 174 178 177 164 159 84 26 10 345 325 312 315 321 323 326
113 67 265 275 260 278 224 182 180 164 161 199 138 132 287 167 175 170 175 179 183 185 184 188 188 188 189 188 188 186 184 178 175 180 180 176 182 171 179 253 353 2 6 6 355 345 340 338 338
110 115 276 269 287 274 257 161 172 172 195 111 146 177 229 191 169 167 178 184 190 191 195 195 194 193 194 193 192 189 182 181 184 185 187 185 189 209 252 290 315 334 350 356 351 350 348 351 355
126 51 284 252 277 315 345 139 115 121 121 186 187 145 209 162 160 164 173 187 192 197 201 200 200 200 201 200 196 192 188 186 192 194 203 211 230 247 263 278 295 303 313 321 328 331 329 334 335
148 160 234 262 58 298 0 341 174 137 131 239 138 68 136 149 162 169 174 180 193 201 203 204 204 203 203 203 202 203 198 195 200 199 207 221 241 257 271 271 289 308 291 302 308 305 302 309 311
170 207 231 268 242 238 273 273 194 140 234 209 202 138 146 156 171 173 172 201 208 210 212 209 206 206 207 206 206 205 206 201 205 205 212 221 235 248 255 254 262 284 284 278 289 303 288 289 281
178 260 203 268 228 218 245 219 181 169 348 339 83 134 146 141 143 174 185 190 203 239 228 216 210 208 209 210 211 213 212 211 211 218 218 224 235 243 253 266 266 280 277 283 292 300 312 278 275
215 232 219 249 299 285 290 244 103 81 23 102 108 118 141 155 168 185 198 208 200 206 234 228 216 212 211 213 216 220 222 219 220 222 226 231 239 246 256 269 262 269 283 292 291 304 294 285 265
224 199 245 340 301 272 265 46 60 281 144 111 119 133 135 160 177 189 214 244 242 223 228 232 222 218 217 216 222 226 230 232 231 239 238 238 242 248 251 254 267 274 287 289 296 289 289 278 281
281 267 298 256 248 299 117 36 358 348 15 94 116 128 161 173 193 232 286 241 222 227 224 229 227 217 222 225 227 232 236 242 235 243 253 250 248 251 249 251 261 279 278 273 279 279 281 280 288
24 43 16 298 4 319 264 129 313 240 148 141 149 157 172 117 266 269 249 187 138 179 205 210 214 217 223 229 235 242 246 242 230 245 250 256 266 282 270 255 262 269 258 265 271 275 277 291 309
13 300 332 308 144 179 30 136 232 255 196 167 83 122 203 214 243 263 225 163 145 160 174 196 205 218 222 234 241 237 223 220 228 243 254 261 263 282 280 274 259 263 256 260 261 266 273 293 317
304 337 290 261 320 49 71 254 208 227 263 84 157 226 267 253 268 249 224 171 166 171 169 175 205 209 212 214 220 207 215 239 250 251 259 257 251 264 262 255 255 262 251 248 253 255 270 279 306
216 207 256 262 315 78 10 347 314 332 305 50 138 131 343 304 315 164 214 154 162 164 170 176 203 221 220 211 222 239 252 255 252 262 264 287 290 312 277 266 264 257 241 252 248 253 269 274 283
210 297 292 289 61 81 234 306 304 328 321 348 355 325 277 299 339 26 130 140 154 169 177 188 203 216 217 215 227 235 237 253 273 271 304 305 309 304 293 274 269 251 250 250 253 262 261 261 266
238 219 261 236 5 37 112 327 325 330 320 292 278 216 241 233 269 295 112 144 167 179 188 194 210 248 231 233 240 227 242 253 274 327 353 350 342 324 285 272 271 282 270 265 269 275 266 261 263
258 216 241 260 173 253 168 259 278 241 307 312 355 30 228 213 144 153 135 149 164 179 188 205 239 244 230 227 218 237 246 277 317 338 334 332 340 335 320 306 303 316 302 293 291 285 260 258 272
243 30 258 284 191 119 189 108 255 275 147 119 54 45 18 188 159 149 142 132 160 175 188 202 197 202 192 211 228 225 296 291 310 325 321 327 334 335 325 320 321 320 312 316 325 316 292 282 279
226 125 64 69 91 2 232 148 267 195 162 170 125 88 99 96 118 131 121 132 140 162 175 169 168 200 234 217 196 228 313 309 294 315 322 332 340 344 339 337 331 316 305 293 286 281 275 275 280
68 52 342 327 336 227 285 29 235 206 156 191 168 124 110 134 137 140 128 142 154 161 167 188 205 185 153 161 180 257 284 306 228 308 338 334 333 333 332 326 324 315 303 298 296 292 284 287 284
175 159 163 227 209 241 66 240 255 179 97 98 120 121 140 148 142 156 169 169 165 161 171 177 174 162 175 195 207 200 160 133 65 340 332 335 335 328 320 316 322 321 320 313 302 294 289 288 286
238 242 189 100 357 37 237 294 313 87 93 114 121 115 148 160 158 174 167 162 153 156 165 166 167 164 174 165 151 142 142 54 325 329 326 312 312 311 314 317 320 317 316 315 312 304 289 291 286
152 152 73 14 172 253 290 280 237 180 170 159 155 151 185 206 184 186 172 160 154 165 172 176 192 184 157 146 149 156 253 317 330 316 313 315 313 316 320 321 323 319 314 314 310 301 290 289 282
10 323 56 126 144 195 275 259 212 197 172 170 176 181 187 191 202 197 193 175 171 174 176 181 158 156 160 165 179 239 302 304 302 302 311 313 320 325 326 328 324 318 315 313 313 298 286 295 296
175 204 160 135 256 232 175 270 265 183 181 171 175 186 196 204 199 198 198 187 187 186 174 162 163 174 181 184 219 246 283 294 298 304 307 318 326 326 330 332 326 316 315 324 326 316 298 294 303